Time,TemperatureF,DewpointF,PressureIn,WindDirection,WindDirectionDegrees,WindSpeedMPH,WindSpeedGustMPH,Humidity,HourlyPrecipIn,Conditions,Clouds,dailyrainin,SoftwareType,DateUTC
2013-07-04 00:02:00,62.0,-99.9,30.08,South,180,0.0,0.0,-999,0.00,,,0.00,,2013-07-04 05:02:00,
2013-07-04 00:12:00,62.0,-99.9,30.08,South,180,0.0,0.0,-999,0.00,,,0.00,,2013-07-04 05:12:00,
2013-07-04 00:33:00,60.0,-99.9,30.07,South,180,0.0,0.0,-999,0.00,,,0.00,,2013-07-04 05:33:00,
2013-07-04 00:43:00,60.0,-99.9,30.06,South,180,0.0,0.0,-999,0.00,,,0.00,,2013-07-04 05:43:00,
2013-07-04 01:01:00,61.0,-99.9,30.07,South,180,0.0,0.0,-999,0.00,,,0.00,,2013-07-04 06:01:00,
2013-07-04 01:11:00,60.0,-99.9,30.07,South,180,0.0,0.0,-999,0.00,,,0.00,,2013-07-04 06:11:00,
2013-07-04 01:34:00,61.0,-99.9,30.06,South,180,0.0,0.0,-999,0.00,,,0.00,,2013-07-04 06:34:00,
2013-07-04 01:43:00,61.0,-99.9,30.07,South,180,0.0,0.0,-999,0.00,,,0.00,,2013-07-04 06:43:00,
2013-07-04 02:02:00,59.0,-99.9,30.07,South,180,0.0,0.0,-999,0.00,,,0.00,,2013-07-04 07:02:00,
2013-07-04 02:12:00,59.0,-99.9,30.07,South,180,0.0,0.0,-999,0.00,,,0.00,,2013-07-04 07:12:00,
2013-07-04 02:34:00,59.0,-99.9,30.07,South,180,0.0,0.0,-999,0.00,,,0.00,,2013-07-04 07:34:00,
2013-07-04 02:52:00,59.0,-99.9,30.07,South,180,0.0,0.0,-999,0.00,,,0.00,,2013-07-04 07:52:00,
2013-07-04 03:02:00,58.0,-99.9,30.07,South,180,0.0,0.0,-999,0.00,,,0.00,,2013-07-04 08:02:00,
2013-07-04 03:12:00,59.0,-99.9,30.07,South,180,0.0,0.0,-999,0.00,,,0.00,,2013-07-04 08:12:00,
2013-07-04 03:33:00,58.0,-99.9,30.07,South,180,0.0,0.0,-999,0.00,,,0.00,,2013-07-04 08:33:00,
2013-07-04 03:43:00,57.0,-99.9,30.07,South,180,0.0,0.0,-999,0.00,,,0.00,,2013-07-04 08:43:00,
2013-07-04 04:02:00,57.0,-99.9,30.07,South,180,0.0,0.0,-999,0.00,,,0.00,,2013-07-04 09:02:00,
2013-07-04 04:11:00,57.0,-99.9,30.07,South,180,0.0,0.0,-999,0.00,,,0.00,,2013-07-04 09:11:00,
2013-07-04 04:33:00,58.0,-99.9,30.07,South,180,0.0,0.0,-999,0.00,,,0.00,,2013-07-04 09:33:00,
2013-07-04 04:42:00,57.0,-99.9,30.07,South,180,0.0,0.0,-999,0.00,,,0.00,,2013-07-04 09:42:00,
2013-07-04 05:01:00,57.0,-99.9,30.07,South,180,0.0,0.0,-999,0.00,,,0.00,,2013-07-04 10:01:00,
2013-07-04 05:11:00,57.0,-99.9,30.08,South,180,0.0,0.0,-999,0.00,,,0.00,,2013-07-04 10:11:00,
2013-07-04 05:34:00,56.0,-99.9,30.08,South,180,0.0,0.0,-999,0.00,,,0.00,,2013-07-04 10:34:00,
2013-07-04 05:43:00,56.0,-99.9,30.08,South,180,0.0,0.0,-999,0.00,,,0.00,,2013-07-04 10:43:00,
2013-07-04 05:53:00,56.0,-99.9,30.08,South,180,0.0,0.0,-999,0.00,,,0.00,,2013-07-04 10:53:00,
2013-07-04 06:02:00,57.0,-99.9,30.08,South,180,0.0,0.0,-999,0.00,,,0.00,,2013-07-04 11:02:00,
2013-07-04 06:12:00,56.0,-99.9,30.08,South,180,0.0,0.0,-999,0.00,,,0.00,,2013-07-04 11:12:00,
2013-07-04 06:34:00,58.0,-99.9,30.08,South,180,0.0,0.0,-999,0.00,,,0.00,,2013-07-04 11:34:00,
2013-07-04 06:43:00,58.0,-99.9,30.08,South,180,0.0,0.0,-999,0.00,,,0.00,,2013-07-04 11:43:00,
2013-07-04 07:02:00,60.0,-99.9,30.08,South,180,0.0,0.0,-999,0.00,,,0.00,,2013-07-04 12:02:00,
2013-07-04 07:12:00,60.0,-99.9,30.08,South,180,0.0,0.0,-999,0.00,,,0.00,,2013-07-04 12:12:00,
2013-07-04 07:33:00,62.0,-99.9,30.08,South,180,0.0,0.0,-999,0.01,,,0.01,,2013-07-04 12:33:00,
2013-07-04 07:43:00,64.0,-99.9,30.09,South,180,0.0,0.0,-999,0.01,,,0.01,,2013-07-04 12:43:00,
2013-07-04 08:02:00,66.0,-99.9,30.09,SE,135,5.0,6.0,-999,0.01,,,0.01,,2013-07-04 13:02:00,
2013-07-04 08:12:00,66.0,-99.9,30.09,SE,135,5.0,7.0,-999,0.01,,,0.01,,2013-07-04 13:12:00,
2013-07-04 08:33:00,68.0,-99.9,30.10,SSE,158,0.0,8.0,-999,0.00,,,0.01,,2013-07-04 13:33:00,
2013-07-04 08:43:00,68.0,-99.9,30.09,East,90,0.0,6.0,-999,0.00,,,0.01,,2013-07-04 13:43:00,
2013-07-04 09:02:00,71.0,-99.9,30.09,South,180,0.0,3.0,-999,0.00,,,0.01,,2013-07-04 14:02:00,
2013-07-04 09:12:00,72.0,-99.9,30.10,SSW,203,3.0,6.0,-999,0.00,,,0.01,,2013-07-04 14:12:00,
2013-07-04 09:33:00,73.0,-99.9,30.10,SW,225,0.0,5.0,-999,0.00,,,0.01,,2013-07-04 14:33:00,
2013-07-04 09:43:00,75.0,-99.9,30.10,SSE,158,0.0,6.0,-999,0.00,,,0.01,,2013-07-04 14:43:00,
2013-07-04 09:53:00,74.0,-99.9,30.10,SSW,203,0.0,5.0,-999,0.00,,,0.01,,2013-07-04 14:53:00,
2013-07-04 10:02:00,74.0,-99.9,30.09,SSW,203,0.0,3.0,-999,0.00,,,0.01,,2013-07-04 15:02:00,
2013-07-04 10:11:00,74.0,-99.9,30.09,SSW,203,0.0,0.0,-999,0.00,,,0.01,,2013-07-04 15:11:00,
2013-07-04 10:33:00,76.0,-99.9,30.09,East,90,0.0,5.0,-999,0.00,,,0.01,,2013-07-04 15:33:00,
2013-07-04 10:43:00,76.0,-99.9,30.09,ESE,113,0.0,7.0,-999,0.00,,,0.01,,2013-07-04 15:43:00,
2013-07-04 11:02:00,78.0,-99.9,30.09,ESE,113,3.0,7.0,-999,0.00,,,0.01,,2013-07-04 16:02:00,
2013-07-04 11:11:00,79.0,-99.9,30.09,ESE,113,0.0,7.0,-999,0.00,,,0.01,,2013-07-04 16:11:00,
2013-07-04 11:22:00,78.0,-99.9,30.09,ESE,113,1.0,5.0,-999,0.00,,,0.01,,2013-07-04 16:22:00,
2013-07-04 11:33:00,78.0,-99.9,30.09,ESE,113,1.0,6.0,-999,0.00,,,0.01,,2013-07-04 16:33:00,
2013-07-04 11:43:00,80.0,-99.9,30.09,SSE,158,1.0,6.0,-999,0.00,,,0.01,,2013-07-04 16:43:00,
2013-07-04 11:52:00,80.0,-99.9,30.09,East,90,1.0,7.0,-999,0.00,,,0.01,,2013-07-04 16:52:00,
2013-07-04 12:02:00,79.0,-99.9,30.09,ESE,113,3.0,8.0,-999,0.00,,,0.01,,2013-07-04 17:02:00,
2013-07-04 12:12:00,80.0,-99.9,30.09,ESE,113,7.0,10.0,-999,0.00,,,0.01,,2013-07-04 17:12:00,
2013-07-04 12:22:00,80.0,-99.9,30.09,East,90,1.0,10.0,-999,0.00,,,0.01,,2013-07-04 17:22:00,
2013-07-04 12:34:00,79.0,-99.9,30.09,ESE,113,6.0,9.0,-999,0.00,,,0.01,,2013-07-04 17:34:00,
2013-07-04 12:43:00,81.0,-99.9,30.09,SE,135,7.0,10.0,-999,0.00,,,0.01,,2013-07-04 17:43:00,
2013-07-04 13:02:00,82.0,-99.9,30.08,East,90,5.0,12.0,-999,0.00,,,0.01,,2013-07-04 18:02:00,
2013-07-04 13:11:00,82.0,-99.9,30.08,SE,135,8.0,14.0,-999,0.00,,,0.01,,2013-07-04 18:11:00,
2013-07-04 13:33:00,82.0,-99.9,30.08,ESE,113,7.0,14.0,-999,0.00,,,0.01,,2013-07-04 18:33:00,
2013-07-04 13:43:00,83.0,-99.9,30.07,ESE,113,7.0,13.0,-999,0.00,,,0.01,,2013-07-04 18:43:00,
2013-07-04 14:02:00,83.0,-99.9,30.08,East,90,5.0,13.0,-999,0.00,,,0.01,,2013-07-04 19:02:00,
2013-07-04 14:12:00,82.0,-99.9,30.08,SE,135,8.0,12.0,-999,0.00,,,0.01,,2013-07-04 19:12:00,
2013-07-04 14:34:00,83.0,-99.9,30.08,ESE,113,6.0,12.0,-999,0.00,,,0.01,,2013-07-04 19:34:00,
2013-07-04 14:43:00,83.0,-99.9,30.07,ESE,113,5.0,10.0,-999,0.00,,,0.01,,2013-07-04 19:43:00,
2013-07-04 15:02:00,83.0,-99.9,30.06,ESE,113,7.0,12.0,-999,0.00,,,0.01,,2013-07-04 20:02:00,
2013-07-04 16:43:00,84.0,-99.9,30.05,ESE,113,6.0,10.0,-999,0.00,,,0.01,,2013-07-04 21:43:00,
2013-07-04 17:02:00,85.0,-99.9,30.05,East,90,2.0,7.0,-999,0.00,,,0.01,,2013-07-04 22:02:00,
2013-07-04 17:12:00,82.0,-99.9,30.05,ESE,113,2.0,6.0,-999,0.00,,,0.01,,2013-07-04 22:12:00,
2013-07-04 17:22:00,84.0,-99.9,30.04,East,90,0.0,6.0,-999,0.00,,,0.01,,2013-07-04 22:22:00,
2013-07-04 17:33:00,85.0,-99.9,30.04,East,90,0.0,5.0,-999,0.00,,,0.01,,2013-07-04 22:33:00,
2013-07-04 17:43:00,83.0,-99.9,30.04,East,90,0.0,0.0,-999,0.00,,,0.01,,2013-07-04 22:43:00,
2013-07-04 18:02:00,81.0,-99.9,30.03,East,90,0.0,0.0,-999,0.00,,,0.01,,2013-07-04 23:02:00,
2013-07-04 18:12:00,80.0,-99.9,30.03,ENE,68,0.0,3.0,-999,0.00,,,0.01,,2013-07-04 23:12:00,
2013-07-04 18:33:00,80.0,-99.9,30.03,ENE,68,0.0,0.0,-999,0.00,,,0.01,,2013-07-04 23:33:00,
2013-07-04 18:43:00,80.0,-99.9,30.03,ENE,68,0.0,0.0,-999,0.00,,,0.01,,2013-07-04 23:43:00,
2013-07-04 19:01:00,79.0,-99.9,30.03,ENE,68,0.0,0.0,-999,0.00,,,0.01,,2013-07-05 00:01:00,
2013-07-04 19:12:00,76.0,-99.9,30.03,ENE,68,0.0,0.0,-999,0.00,,,0.01,,2013-07-05 00:12:00,
2013-07-04 19:32:00,74.0,-99.9,30.03,ENE,68,0.0,0.0,-999,0.00,,,0.01,,2013-07-05 00:32:00,
2013-07-04 19:43:00,74.0,-99.9,30.03,ENE,68,0.0,0.0,-999,0.00,,,0.01,,2013-07-05 00:43:00,
2013-07-04 19:52:00,73.0,-99.9,30.03,ENE,68,0.0,0.0,-999,0.00,,,0.01,,2013-07-05 00:52:00,
2013-07-04 20:01:00,73.0,-99.9,30.03,ENE,68,0.0,0.0,-999,0.00,,,0.01,,2013-07-05 01:01:00,
2013-07-04 20:11:00,73.0,-99.9,30.03,ENE,68,0.0,0.0,-999,0.00,,,0.01,,2013-07-05 01:11:00,
2013-07-04 20:32:00,73.0,-99.9,30.03,ENE,68,0.0,0.0,-999,0.00,,,0.01,,2013-07-05 01:32:00,
2013-07-04 20:42:00,72.0,-99.9,30.03,ENE,68,0.0,0.0,-999,0.00,,,0.01,,2013-07-05 01:42:00,
2013-07-04 20:52:00,69.0,-99.9,30.03,ENE,68,0.0,0.0,-999,0.00,,,0.01,,2013-07-05 01:52:00,
2013-07-04 21:02:00,69.0,-99.9,30.03,ENE,68,0.0,0.0,-999,0.00,,,0.01,,2013-07-05 02:02:00,
2013-07-04 21:11:00,68.0,-99.9,30.03,ENE,68,0.0,0.0,-999,0.00,,,0.01,,2013-07-05 02:11:00,
2013-07-04 21:22:00,68.0,-99.9,30.03,ENE,68,0.0,0.0,-999,0.00,,,0.01,,2013-07-05 02:22:00,
2013-07-04 21:32:00,68.0,-99.9,30.03,ENE,68,0.0,0.0,-999,0.00,,,0.01,,2013-07-05 02:32:00,
2013-07-04 21:43:00,67.0,-99.9,30.03,ENE,68,0.0,0.0,-999,0.00,,,0.01,,2013-07-05 02:43:00,
2013-07-04 21:53:00,67.0,-99.9,30.03,ENE,68,0.0,0.0,-999,0.00,,,0.01,,2013-07-05 02:53:00,
2013-07-04 22:02:00,67.0,-99.9,30.04,ENE,68,0.0,0.0,-999,0.00,,,0.01,,2013-07-05 03:02:00,
2013-07-04 22:11:00,67.0,-99.9,30.04,ENE,68,0.0,0.0,-999,0.00,,,0.01,,2013-07-05 03:11:00,
2013-07-04 22:22:00,67.0,-99.9,30.04,ENE,68,0.0,0.0,-999,0.00,,,0.01,,2013-07-05 03:22:00,
2013-07-04 22:33:00,67.0,-99.9,30.04,ENE,68,0.0,0.0,-999,0.00,,,0.01,,2013-07-05 03:33:00,
2013-07-04 22:42:00,67.0,-99.9,30.04,ENE,68,0.0,0.0,-999,0.00,,,0.01,,2013-07-05 03:42:00,
2013-07-04 22:52:00,67.0,-99.9,30.04,ENE,68,0.0,0.0,-999,0.00,,,0.01,,2013-07-05 03:52:00,
2013-07-04 23:01:00,66.0,-99.9,30.04,ENE,68,0.0,0.0,-999,0.00,,,0.01,,2013-07-05 04:01:00,
2013-07-04 23:12:00,66.0,-99.9,30.04,ENE,68,0.0,0.0,-999,0.00,,,0.01,,2013-07-05 04:12:00,
2013-07-04 23:22:00,66.0,-99.9,30.04,ENE,68,0.0,0.0,-999,0.00,,,0.01,,2013-07-05 04:22:00,
2013-07-04 23:33:00,66.0,-99.9,30.04,ENE,68,0.0,0.0,-999,0.00,,,0.01,,2013-07-05 04:33:00,
2013-07-04 23:43:00,66.0,-99.9,30.04,ENE,68,0.0,0.0,-999,0.00,,,0.01,,2013-07-05 04:43:00,
2013-07-04 23:53:00,66.0,-99.9,30.04,ENE,68,0.0,0.0,-999,0.00,,,0.01,,2013-07-05 04:53:00,